Location: Castiglione Fibocchi
(43.5333°N, 11.7667°E)
Time: 12:59:59
(UTC+00:00)

CZ-2D R/B - Pass Details

Date: 15 August 2020
Orbit: 792 x 845 km, 98.7° (Epoch: 24 September)

Event Time Altitude Azimuth Distance (km) Brightness Sun altitude
Rises 01:00:00 0° 12° (NNE) 3,416 6.5 -27.9°
Reaches altitude 10° 01:02:22 10° 12° (NNE) 2,476 5.5 -27.7°
Maximum altitude 01:07:53 83° 286° (WNW) 855 2.1 -27.2°
Enters shadow 01:07:59 82° 263° (W) 856 2.0 -27.2°
